Location: Grand Mazuras
(45.9128°N, 1.7636°E)
Time: 04:45:03
(UTC+00:00)

Cosmos 2221 - Pass Details

Date: 18 April 2021
Orbit: 593 x 615 km, 82.5° (Epoch: 10 May)

Event Time Altitude Azimuth Distance (km) Brightness Sun altitude
Exits shadow 22:30:07 35° 351° (N) 979 4.0 -30.0°
Drops below altitude 10° 22:32:42 10° 3° (N) 1,941 5.8 -30.2°
Sets 22:34:56 0° 7° (N) 2,850 6.8 -30.3°
